Location: Krakow
(50.0830°N, 19.9170°E)
Time: 08:00:22
(UTC+02:00)

A-11 Canister half - Pass Details

Date: 20 March 2026
Orbit: 1523 x 1684 km, 47.3° (Epoch: 18 April)

Event Time Altitude Azimuth Distance (km) Brightness Sun altitude
Rises 05:12:15 0° 166° (SSE) 4,912 11.7 -5.8°
Reaches altitude 10° 05:19:18 10° 133° (SE) 3,902 11.8 -4.7°
Maximum altitude 05:21:13 11° 122° (ESE) 3,838 12.0 -4.4°
Drops below altitude 10° 05:23:08 10° 110° (ESE) 3,885 12.4 -4.1°
Sets 05:30:00 0° 77° (ENE) 4,834 14.0 -3.0°
